CZ-6A DEB, 56270

Orbit data source: Space-Track

CZ-6A DEB, 56270 is space debris in SSO originally from a launch on Fri, 11 Nov 2022 UTC launched from the Taiyaun Space Center, China (TSC). Debris objects in space refer to the collection of defunct objects orbiting the Earth. Examples of debris include non-operational satellites, rocket bodies, and fragments generated from explosions, collisions, or faulty payload assembly.

Loading next visibility...
Identifier
56270, 2022-151ACN
Orbit
SSO
Country
Flag of CNCN / PRC
Related business
Manufacturer
SAST
Mission
Spacecraft
Bus & Motor
Unknown
Mass
Unknown
Launch date (UTC)
2022-11-11 (3 years ago)
Launch vehicle
Unknown
Launch site
Taiyaun Space Center, China (TSC)
Object type
Payload
Rocket body
Debris
Shape & HBR
Unknown shape, 0.1 m
Radar Cross Section
Small (<0.1 m²)

Expand to show TLE details & history
Last TLE update: 1 day ago

TLE from 1 day ago
0 CZ-6A DEB
1 56270U 22151ACN 25349.09018679  .00009990  00000-0  16228-2 0  9992
2 56270  98.6367  41.9292 0075259 129.7330 231.0538 14.69448041148816
Epoch: 2025-12-15T02:09Z
TLE epoch observation values (Epoch: 2025-12-15T02:09:52.138Z)
Latitude
-0.00006°
Longitude
-74.53178°
Altitude
699.371 km
Speed
7.488 km/s
True Right ascension
02h 47m 43s
True Declination
0° 00' 00"
Sunlit
Object was in full shadow at epoch
Visualization orbit readout
Latitude
Unknown
Longitude
Unknown
Altitude
Unknown
Speed
Unknown
Apparent Right ascension
Unknown
Apparent Declination
Unknown
Sunlit
N/A
Visualization observer readout
Local Sidereal Time
08:22:02
Azimuth
Unknown
Elevation
Unknown
Doppler factor
Unknown
Orbital elements
Apogee altitude
712.887 km
Perigee altitude
606.952 km
Semi-major axis
7,038.057 km
Eccentricity
0.00753
Inclination
98.6367°
RAAN
41.9292°
Arg. of periapsis
129.733°
True anomaly
230.38704°
Mean anomaly
231.0538°
Eccentric anomaly
230.72002°
Mean motion
3.6759 °/min
Orbital period
97.94 mins
BSTAR
0.0016228
Loading maneuver chart data...
Computing Atmospheric mass density...
Loading historical data...
Loading historical data...
Loading historical data...
Loading historical data...
Loading historical data...
Loading historical data...
Loading historical data...

Documentation

Showing up to 5 results
|